PPLGT UUDD-LOWW

Flight info

Callsign PPLGT
Flight time 2h 23m
Altitude 36000
Route SOTOG4Q SOTOG L736 GODBI L856 RAVOK P851 VALOL M984 LETKI/N0442F360 M984 TUSIN DCT UPLAV DCT MIKOV MIKOV8W
Aircraft B738/M-SDE2E3FGHIRWXY/LB1

Departure

Time 2026-05-06 11:49
Airport Domodedovo International Airport (UUDD)

Arrival

Time 2026-05-06 14:12
Airport Vienna International Airport (LOWW)
Time Latitude Longitude Altitude Speed Heading
2026-05-06 11:23 55.41106 37.89420 596 ft 0 kts 57°
2026-05-06 11:37 55.41105 37.89419 596 ft 1 kts 57°
2026-05-06 11:37 55.41098 37.89398 596 ft 3 kts 60°
2026-05-06 11:37 55.41089 37.89367 596 ft 3 kts 68°
2026-05-06 11:38 55.41083 37.89333 596 ft 3 kts 82°
2026-05-06 11:38 55.41083 37.89301 596 ft 3 kts 114°
2026-05-06 11:38 55.41090 37.89283 596 ft 1 kts 148°
2026-05-06 11:38 55.41094 37.89278 596 ft 0 kts 148°
2026-05-06 11:40 55.41094 37.89279 596 ft 0 kts 148°
2026-05-06 11:40 55.41088 37.89285 596 ft 1 kts 148°
2026-05-06 11:40 55.41078 37.89297 596 ft 2 kts 148°
2026-05-06 11:41 55.41061 37.89315 596 ft 3 kts 146°
2026-05-06 11:41 55.41040 37.89341 596 ft 4 kts 145°
2026-05-06 11:41 55.41013 37.89374 596 ft 5 kts 146°
2026-05-06 11:41 55.40980 37.89411 596 ft 6 kts 146°
2026-05-06 11:42 55.40943 37.89455 596 ft 7 kts 146°
2026-05-06 11:42 55.40903 37.89504 596 ft 6 kts 145°
2026-05-06 11:42 55.40862 37.89524 596 ft 7 kts 193°
2026-05-06 11:42 55.40830 37.89470 596 ft 7 kts 237°
2026-05-06 11:43 55.40804 37.89403 596 ft 7 kts 236°
2026-05-06 11:43 55.40778 37.89335 596 ft 7 kts 236°
2026-05-06 11:43 55.40745 37.89279 596 ft 7 kts 203°
2026-05-06 11:44 55.40662 37.89333 596 ft 7 kts 145°
2026-05-06 11:44 55.40620 37.89384 596 ft 8 kts 146°
2026-05-06 11:44 55.40571 37.89442 596 ft 9 kts 146°
2026-05-06 11:44 55.40517 37.89506 596 ft 10 kts 146°
2026-05-06 11:45 55.40458 37.89576 596 ft 11 kts 146°
2026-05-06 11:45 55.40395 37.89651 596 ft 11 kts 146°
2026-05-06 11:45 55.40329 37.89730 596 ft 12 kts 146°
2026-05-06 11:45 55.40259 37.89812 596 ft 12 kts 146°
2026-05-06 11:46 55.40187 37.89898 596 ft 13 kts 146°
2026-05-06 11:46 55.40110 37.89989 596 ft 14 kts 146°
2026-05-06 11:46 55.40031 37.90083 596 ft 14 kts 146°
2026-05-06 11:46 55.39947 37.90182 596 ft 15 kts 146°
2026-05-06 11:47 55.39860 37.90286 596 ft 16 kts 146°
2026-05-06 11:47 55.39770 37.90392 596 ft 15 kts 146°
2026-05-06 11:47 55.39686 37.90493 596 ft 12 kts 146°
2026-05-06 11:47 55.39631 37.90548 596 ft 8 kts 170°
2026-05-06 11:48 55.39588 37.90492 596 ft 8 kts 238°
2026-05-06 11:48 55.39555 37.90402 596 ft 9 kts 240°
2026-05-06 11:48 55.39555 37.90297 596 ft 9 kts 296°
2026-05-06 11:48 55.39606 37.90223 596 ft 18 kts 326°
2026-05-06 11:49 55.39901 37.89870 596 ft 84 kts 326°
2026-05-06 11:49 55.40556 37.89098 597 ft 141 kts 325°
2026-05-06 11:49 55.41466 37.88053 973 ft 157 kts 326°
2026-05-06 11:49 55.42368 37.87067 1857 ft 147 kts 322°
2026-05-06 11:50 55.43122 37.85826 2429 ft 158 kts 311°
2026-05-06 11:50 55.43910 37.84221 2799 ft 186 kts 308°
2026-05-06 11:50 55.44777 37.82315 3211 ft 209 kts 307°
2026-05-06 11:50 55.45664 37.80267 3737 ft 213 kts 301°
2026-05-06 11:51 55.46057 37.77756 3931 ft 218 kts 271°
2026-05-06 11:51 55.45664 37.75057 4438 ft 237 kts 247°
2026-05-06 11:51 55.44802 37.72536 5288 ft 243 kts 237°
2026-05-06 11:51 55.43764 37.70141 5717 ft 247 kts 227°
2026-05-06 11:52 55.42300 37.68540 5967 ft 254 kts 202°
2026-05-06 11:52 55.40538 37.68200 6044 ft 266 kts 176°
2026-05-06 11:52 55.38713 37.69318 6501 ft 289 kts 153°
2026-05-06 11:52 55.37070 37.71434 6899 ft 295 kts 143°
2026-05-06 11:53 55.35430 37.73631 6994 ft 297 kts 145°
2026-05-06 11:53 55.33773 37.75792 7019 ft 297 kts 146°
2026-05-06 11:53 55.32078 37.77878 7567 ft 303 kts 147°
2026-05-06 11:53 55.30340 37.79990 7851 ft 304 kts 146°
2026-05-06 11:54 55.28597 37.82065 7984 ft 302 kts 150°
2026-05-06 11:54 55.26722 37.83713 8047 ft 302 kts 160°
2026-05-06 11:54 55.24715 37.84887 8837 ft 303 kts 167°
2026-05-06 11:54 55.22674 37.85806 9817 ft 302 kts 169°
2026-05-06 11:55 55.20620 37.86667 10664 ft 306 kts 169°
2026-05-06 11:55 55.18536 37.87558 11463 ft 310 kts 169°
2026-05-06 11:55 55.16421 37.88479 12242 ft 314 kts 169°
2026-05-06 11:55 55.14316 37.89403 12993 ft 318 kts 169°
2026-05-06 11:56 55.12089 37.89810 13548 ft 319 kts 187°
2026-05-06 11:56 55.09991 37.88888 13817 ft 317 kts 207°
2026-05-06 11:56 55.08066 37.86905 13862 ft 325 kts 220°
2026-05-06 11:56 55.06363 37.84270 13864 ft 329 kts 228°
2026-05-06 11:57 55.04776 37.81380 13857 ft 330 kts 229°
2026-05-06 11:57 55.03171 37.78527 13852 ft 330 kts 228°
2026-05-06 11:57 55.01543 37.75704 13848 ft 330 kts 227°
2026-05-06 11:57 54.99916 37.72889 13847 ft 330 kts 227°
2026-05-06 11:58 54.98261 37.70124 13847 ft 330 kts 226°
2026-05-06 11:58 54.96583 37.67387 13847 ft 330 kts 226°
2026-05-06 11:58 54.95000 37.64502 13833 ft 327 kts 236°
2026-05-06 11:58 54.93974 37.61016 13886 ft 326 kts 253°
2026-05-06 11:59 54.93434 37.57175 14587 ft 327 kts 261°
2026-05-06 11:59 54.93108 37.53308 15294 ft 329 kts 265°
2026-05-06 11:59 54.92886 37.49333 15708 ft 331 kts 265°
2026-05-06 11:59 54.92665 37.45323 15830 ft 331 kts 264°
2026-05-06 12:00 54.92436 37.41338 15839 ft 329 kts 264°
2026-05-06 12:00 54.92206 37.37401 15844 ft 328 kts 264°
2026-05-06 12:00 54.91978 37.33471 15942 ft 332 kts 264°
2026-05-06 12:00 54.91742 37.29468 16661 ft 333 kts 264°
2026-05-06 12:01 54.91503 37.25465 17420 ft 334 kts 264°
2026-05-06 12:01 54.91068 37.21483 18057 ft 339 kts 252°
2026-05-06 12:01 54.89993 37.17805 18685 ft 345 kts 238°
2026-05-06 12:01 54.88479 37.14529 19304 ft 350 kts 231°
2026-05-06 12:02 54.86789 37.11436 19713 ft 357 kts 227°
2026-05-06 12:02 54.84996 37.08420 19840 ft 359 kts 226°
2026-05-06 12:02 54.83196 37.05417 19843 ft 357 kts 226°
2026-05-06 12:02 54.81438 37.02473 19846 ft 355 kts 227°
2026-05-06 12:03 54.79660 36.99490 19846 ft 355 kts 227°
2026-05-06 12:03 54.77880 36.96497 19846 ft 357 kts 227°
2026-05-06 12:03 54.76155 36.93378 19834 ft 357 kts 236°
2026-05-06 12:03 54.74969 36.89662 19848 ft 353 kts 252°
2026-05-06 12:04 54.74350 36.85465 20008 ft 365 kts 262°
2026-05-06 12:04 54.73999 36.81050 20179 ft 378 kts 265°
2026-05-06 12:04 54.73786 36.76411 20345 ft 391 kts 267°
2026-05-06 12:04 54.73593 36.71667 20653 ft 399 kts 267°
2026-05-06 12:05 54.73388 36.66860 21109 ft 402 kts 267°
2026-05-06 12:05 54.73257 36.62074 21562 ft 404 kts 270°
2026-05-06 12:05 54.73301 36.57193 22004 ft 406 kts 273°
2026-05-06 12:05 54.73403 36.52282 22431 ft 409 kts 272°
2026-05-06 12:06 54.73473 36.47348 22843 ft 412 kts 272°
2026-05-06 12:06 54.73526 36.42370 23243 ft 414 kts 272°
2026-05-06 12:06 54.73569 36.37368 23632 ft 417 kts 272°
2026-05-06 12:06 54.73606 36.32335 24005 ft 419 kts 272°
2026-05-06 12:07 54.73640 36.27274 24368 ft 422 kts 272°
2026-05-06 12:07 54.73673 36.22185 24718 ft 424 kts 272°
2026-05-06 12:07 54.73703 36.17074 25058 ft 426 kts 271°
2026-05-06 12:07 54.73724 36.11918 25388 ft 428 kts 271°
2026-05-06 12:08 54.73740 36.06805 25703 ft 431 kts 271°
2026-05-06 12:08 54.73753 36.01608 26011 ft 433 kts 271°
2026-05-06 12:08 54.73763 35.96383 26312 ft 435 kts 271°
2026-05-06 12:08 54.73771 35.91137 26604 ft 437 kts 271°
2026-05-06 12:09 54.73777 35.85885 26884 ft 439 kts 271°
2026-05-06 12:09 54.73781 35.80578 27158 ft 441 kts 271°
2026-05-06 12:09 54.73808 35.75253 27424 ft 442 kts 272°
2026-05-06 12:09 54.73862 35.69924 27664 ft 445 kts 272°
2026-05-06 12:10 54.73883 35.64610 27911 ft 446 kts 271°
2026-05-06 12:10 54.73890 35.59214 28154 ft 448 kts 271°
2026-05-06 12:10 54.73887 35.53825 28389 ft 450 kts 271°
2026-05-06 12:10 54.73878 35.48394 28605 ft 452 kts 271°
2026-05-06 12:11 54.73865 35.42940 28810 ft 454 kts 271°
2026-05-06 12:11 54.73849 35.37455 29013 ft 455 kts 271°
2026-05-06 12:11 54.73832 35.31976 29274 ft 456 kts 271°
2026-05-06 12:11 54.73711 35.26570 29608 ft 455 kts 267°
2026-05-06 12:12 54.73308 35.21145 29890 ft 456 kts 262°
2026-05-06 12:12 54.72604 35.15773 30186 ft 457 kts 257°
2026-05-06 12:12 54.71729 35.10484 30521 ft 456 kts 255°
2026-05-06 12:12 54.70783 35.05233 30819 ft 456 kts 255°
2026-05-06 12:13 54.69830 35.00001 31086 ft 456 kts 255°
2026-05-06 12:13 54.69198 34.96538 31275 ft 456 kts 255°
2026-05-06 12:13 54.68244 34.91316 31595 ft 455 kts 255°
2026-05-06 12:13 54.66972 34.84379 32077 ft 452 kts 255°
2026-05-06 12:14 54.66029 34.79250 32275 ft 454 kts 255°
2026-05-06 12:14 54.65382 34.75733 32439 ft 454 kts 255°
2026-05-06 12:14 54.64421 34.70530 32759 ft 453 kts 255°
2026-05-06 12:14 54.63472 34.65394 32902 ft 456 kts 256°
2026-05-06 12:15 54.61582 34.54853 33189 ft 462 kts 256°
2026-05-06 12:15 54.60619 34.49546 33387 ft 463 kts 256°
2026-05-06 12:15 54.59654 34.44263 33766 ft 459 kts 255°
2026-05-06 12:16 54.58693 34.39042 34219 ft 455 kts 255°
2026-05-06 12:16 54.57732 34.33845 34484 ft 455 kts 255°
2026-05-06 12:16 54.55781 34.23359 34763 ft 460 kts 255°
2026-05-06 12:17 54.54802 34.18126 35056 ft 459 kts 255°
2026-05-06 12:17 54.53831 34.12954 35356 ft 458 kts 255°
2026-05-06 12:17 54.52847 34.07722 35620 ft 457 kts 255°
2026-05-06 12:17 54.51882 34.02506 35866 ft 457 kts 256°
2026-05-06 12:18 54.49927 33.92042 35878 ft 458 kts 255°
2026-05-06 12:18 54.47950 33.81710 35881 ft 456 kts 255°
2026-05-06 12:19 54.45947 33.71349 35884 ft 456 kts 255°
2026-05-06 12:19 54.43937 33.61005 35884 ft 457 kts 255°
2026-05-06 12:20 54.41910 33.50596 35887 ft 460 kts 255°
2026-05-06 12:20 54.39881 33.40276 35894 ft 458 kts 255°
2026-05-06 12:21 54.37820 33.29870 35901 ft 463 kts 255°
2026-05-06 12:21 54.35725 33.19362 35905 ft 466 kts 255°
2026-05-06 12:22 54.33629 33.08906 35904 ft 465 kts 255°
2026-05-06 12:22 54.31516 32.98424 35907 ft 465 kts 255°
2026-05-06 12:23 54.29448 32.87909 35903 ft 465 kts 255°
2026-05-06 12:23 54.27372 32.77465 35905 ft 461 kts 255°
2026-05-06 12:24 54.25311 32.67226 35906 ft 456 kts 255°
2026-05-06 12:24 54.23230 32.56969 35908 ft 458 kts 254°
2026-05-06 12:25 54.21136 32.46720 35912 ft 454 kts 254°
2026-05-06 12:25 54.19051 32.36539 35912 ft 453 kts 255°
2026-05-06 12:26 54.16987 32.26357 35915 ft 452 kts 254°
2026-05-06 12:26 54.14905 32.16338 35915 ft 450 kts 253°
2026-05-06 12:27 54.12787 32.06267 35916 ft 452 kts 253°
2026-05-06 12:27 54.10653 31.96173 35915 ft 451 kts 253°
2026-05-06 12:28 54.08522 31.86105 35917 ft 452 kts 253°
2026-05-06 12:28 54.06386 31.76079 35918 ft 448 kts 253°
2026-05-06 12:29 54.04266 31.66198 35919 ft 447 kts 252°
2026-05-06 12:29 54.02128 31.56279 35921 ft 444 kts 252°
2026-05-06 12:30 53.99998 31.46445 35922 ft 443 kts 252°
2026-05-06 12:30 53.97859 31.36606 35924 ft 443 kts 251°
2026-05-06 12:31 53.95807 31.26752 35922 ft 441 kts 252°
2026-05-06 12:31 53.93700 31.16991 35922 ft 444 kts 252°
2026-05-06 12:32 53.91547 31.07193 35924 ft 441 kts 251°
2026-05-06 12:32 53.89386 30.97440 35924 ft 442 kts 251°
2026-05-06 12:33 53.87222 30.87700 35925 ft 441 kts 250°
2026-05-06 12:33 53.85055 30.78012 35926 ft 439 kts 250°
2026-05-06 12:34 53.82876 30.68365 35907 ft 444 kts 252°
2026-05-06 12:34 53.80642 30.58528 35893 ft 451 kts 252°
2026-05-06 12:35 53.78388 30.48648 35890 ft 449 kts 251°
2026-05-06 12:35 53.76138 30.38823 35889 ft 448 kts 252°
2026-05-06 12:36 53.73889 30.29023 35891 ft 448 kts 252°
2026-05-06 12:36 53.71715 30.19134 35889 ft 449 kts 252°
2026-05-06 12:37 53.69460 30.09270 35891 ft 449 kts 250°
2026-05-06 12:37 53.67189 29.99495 35881 ft 444 kts 247°
2026-05-06 12:38 53.64940 29.89891 35863 ft 437 kts 247°
2026-05-06 12:38 53.62714 29.80416 35859 ft 437 kts 247°
2026-05-06 12:39 53.60489 29.70887 35858 ft 438 kts 248°
2026-05-06 12:39 53.58274 29.61342 35856 ft 437 kts 247°
2026-05-06 12:40 53.56017 29.51794 35856 ft 438 kts 246°
2026-05-06 12:40 53.53765 29.42356 35852 ft 437 kts 246°
2026-05-06 12:41 53.51491 29.32867 35849 ft 437 kts 246°
2026-05-06 12:41 53.49220 29.23402 35846 ft 436 kts 247°
2026-05-06 12:42 53.46949 29.13953 35845 ft 436 kts 247°
2026-05-06 12:42 53.44711 29.04505 35842 ft 436 kts 248°
2026-05-06 12:43 53.42435 28.95095 35823 ft 436 kts 245°
2026-05-06 12:43 53.40129 28.85659 35817 ft 440 kts 245°
2026-05-06 12:44 53.37807 28.76208 35817 ft 439 kts 245°
2026-05-06 12:44 53.35466 28.66695 35817 ft 439 kts 245°
2026-05-06 12:45 53.33203 28.57195 35817 ft 440 kts 246°
2026-05-06 12:46 53.29848 28.42987 35817 ft 439 kts 246°
2026-05-06 12:46 53.27591 28.33495 35818 ft 439 kts 246°
2026-05-06 12:47 53.25327 28.24012 35817 ft 439 kts 245°
2026-05-06 12:47 53.23088 28.14508 35817 ft 440 kts 246°
2026-05-06 12:48 53.20882 28.05043 35817 ft 439 kts 246°
2026-05-06 12:48 53.18608 27.95557 35817 ft 439 kts 245°
2026-05-06 12:49 53.16318 27.86115 35817 ft 439 kts 245°
2026-05-06 12:49 53.14017 27.76679 35817 ft 439 kts 245°
2026-05-06 12:50 53.11712 27.67238 35817 ft 439 kts 245°
2026-05-06 12:50 53.09413 27.57820 35817 ft 439 kts 245°
2026-05-06 12:51 53.07113 27.48463 35817 ft 439 kts 245°
2026-05-06 12:51 53.04788 27.39053 35817 ft 439 kts 245°
2026-05-06 12:52 53.02454 27.29660 35817 ft 439 kts 245°
2026-05-06 12:52 53.00116 27.20289 35817 ft 439 kts 245°
2026-05-06 12:53 52.97792 27.10909 35817 ft 439 kts 245°
2026-05-06 12:53 52.95502 27.01561 35817 ft 439 kts 245°
2026-05-06 12:54 52.93177 26.92179 35817 ft 439 kts 245°
2026-05-06 12:54 52.90838 26.82819 35817 ft 439 kts 245°
2026-05-06 12:55 52.88487 26.73467 35817 ft 439 kts 245°
2026-05-06 12:55 52.86143 26.64198 35817 ft 439 kts 245°
2026-05-06 12:56 52.83778 26.54888 35817 ft 439 kts 245°
2026-05-06 12:56 52.81406 26.45591 35817 ft 439 kts 244°
2026-05-06 12:57 52.79020 26.36281 35817 ft 439 kts 244°
2026-05-06 12:57 52.76630 26.26998 35817 ft 439 kts 244°
2026-05-06 12:58 52.74234 26.17725 35817 ft 439 kts 244°
2026-05-06 12:58 52.71831 26.08465 35817 ft 439 kts 244°
2026-05-06 12:59 52.69419 25.99208 35817 ft 439 kts 244°
2026-05-06 12:59 52.67015 25.90021 35817 ft 439 kts 244°
2026-05-06 13:00 52.64591 25.80792 35816 ft 439 kts 244°
2026-05-06 13:00 52.62154 25.71553 35817 ft 439 kts 244°
2026-05-06 13:01 52.59716 25.62345 35817 ft 439 kts 244°
2026-05-06 13:01 52.57284 25.53199 35817 ft 439 kts 244°
2026-05-06 13:02 52.54836 25.44005 35817 ft 439 kts 244°
2026-05-06 13:02 52.52821 25.36349 35817 ft 439 kts 244°
2026-05-06 13:03 52.50358 25.27170 35817 ft 439 kts 244°
2026-05-06 13:03 52.47884 25.18051 35817 ft 439 kts 243°
2026-05-06 13:04 52.45390 25.08906 35817 ft 439 kts 243°
2026-05-06 13:04 52.42890 24.99759 35817 ft 439 kts 243°
2026-05-06 13:05 52.40531 24.90590 35817 ft 440 kts 246°
2026-05-06 13:05 52.38364 24.81200 35805 ft 443 kts 244°
2026-05-06 13:06 52.36159 24.71769 35819 ft 442 kts 246°
2026-05-06 13:06 52.33959 24.62454 35817 ft 439 kts 246°
2026-05-06 13:07 52.31792 24.53110 35817 ft 440 kts 247°
2026-05-06 13:07 52.29606 24.43762 35817 ft 440 kts 246°
2026-05-06 13:08 52.27372 24.34407 35784 ft 446 kts 244°
2026-05-06 13:08 52.25082 24.24911 35819 ft 457 kts 244°
2026-05-06 13:09 52.22758 24.15147 35819 ft 468 kts 247°
2026-05-06 13:09 52.21460 24.04547 35815 ft 484 kts 263°
2026-05-06 13:10 52.21586 23.93493 35819 ft 496 kts 271°
2026-05-06 13:10 52.21893 23.82240 35817 ft 496 kts 269°
2026-05-06 13:11 52.22100 23.71006 35816 ft 492 kts 268°
2026-05-06 13:11 52.22285 23.59894 35816 ft 490 kts 268°
2026-05-06 13:12 52.21740 23.48962 35812 ft 476 kts 248°
2026-05-06 13:12 52.20435 23.44131 35822 ft 467 kts 236°
2026-05-06 13:12 52.18692 23.39714 35820 ft 460 kts 229°
2026-05-06 13:13 52.14823 23.31473 35818 ft 458 kts 228°
2026-05-06 13:13 52.10938 23.23271 35817 ft 454 kts 229°
2026-05-06 13:14 52.07148 23.15231 35816 ft 447 kts 229°
2026-05-06 13:14 52.03374 23.07217 35818 ft 447 kts 229°
2026-05-06 13:15 51.99563 22.99132 35809 ft 457 kts 228°
2026-05-06 13:15 51.95677 22.90812 35821 ft 466 kts 229°
2026-05-06 13:16 51.91758 22.82412 35814 ft 470 kts 229°
2026-05-06 13:16 51.87774 22.73929 35817 ft 475 kts 228°
2026-05-06 13:17 51.83775 22.65459 35815 ft 473 kts 229°
2026-05-06 13:17 51.79766 22.57003 35817 ft 480 kts 229°
2026-05-06 13:18 51.75666 22.48388 35817 ft 486 kts 229°
2026-05-06 13:18 51.71540 22.39749 35816 ft 483 kts 229°
2026-05-06 13:19 51.67437 22.31187 35817 ft 481 kts 229°
2026-05-06 13:19 51.63336 22.22657 35817 ft 482 kts 229°
2026-05-06 13:20 51.59219 22.14123 35817 ft 482 kts 229°
2026-05-06 13:20 51.55102 22.05618 35817 ft 482 kts 229°
2026-05-06 13:21 51.51004 21.97179 35817 ft 482 kts 229°
2026-05-06 13:21 51.46872 21.88698 35817 ft 482 kts 229°
2026-05-06 13:22 51.42737 21.80237 35817 ft 482 kts 229°
2026-05-06 13:22 51.38616 21.71761 35817 ft 482 kts 229°
2026-05-06 13:23 51.34476 21.63327 35817 ft 482 kts 229°
2026-05-06 13:23 51.30308 21.54906 35817 ft 482 kts 228°
2026-05-06 13:24 51.26162 21.46564 35817 ft 482 kts 228°
2026-05-06 13:24 51.22034 21.38275 35812 ft 462 kts 233°
2026-05-06 13:24 51.20067 21.34322 35795 ft 447 kts 233°
2026-05-06 13:25 51.18156 21.30489 35784 ft 437 kts 232°
2026-05-06 13:25 51.14401 21.22980 35775 ft 430 kts 233°
2026-05-06 13:26 51.10653 21.15507 35782 ft 434 kts 233°
2026-05-06 13:26 51.06892 21.08032 35783 ft 435 kts 232°
2026-05-06 13:27 51.03113 21.00541 35774 ft 433 kts 233°
2026-05-06 13:27 50.99336 20.93052 35777 ft 435 kts 234°
2026-05-06 13:28 50.95591 20.85560 35787 ft 436 kts 233°
2026-05-06 13:28 50.91816 20.78072 35793 ft 433 kts 233°
2026-05-06 13:29 50.88053 20.70646 35800 ft 433 kts 229°
2026-05-06 13:29 50.84287 20.63221 35800 ft 433 kts 229°
2026-05-06 13:30 50.80514 20.55771 35791 ft 432 kts 233°
2026-05-06 13:30 50.76720 20.48364 35796 ft 434 kts 227°
2026-05-06 13:31 50.72899 20.40949 35803 ft 441 kts 227°
2026-05-06 13:31 50.69018 20.33444 35797 ft 438 kts 233°
2026-05-06 13:32 50.65190 20.26049 35794 ft 432 kts 231°
2026-05-06 13:32 50.61582 20.18506 35791 ft 432 kts 231°
2026-05-06 13:33 50.58073 20.10829 35800 ft 435 kts 233°
2026-05-06 13:33 50.54500 20.03177 35788 ft 432 kts 229°
2026-05-06 13:34 50.50886 19.95462 35796 ft 444 kts 229°
2026-05-06 13:34 50.47187 19.87586 35806 ft 446 kts 236°
2026-05-06 13:35 50.43541 19.79838 35768 ft 445 kts 230°
2026-05-06 13:35 50.39859 19.72026 35797 ft 442 kts 234°
2026-05-06 13:36 50.36258 19.64299 35798 ft 434 kts 234°
2026-05-06 13:36 50.32713 19.56753 35804 ft 432 kts 234°
2026-05-06 13:37 50.29132 19.49173 35802 ft 433 kts 234°
2026-05-06 13:37 50.25542 19.41606 35802 ft 433 kts 234°
2026-05-06 13:38 50.21954 19.34062 35802 ft 433 kts 234°
2026-05-06 13:38 50.18387 19.26517 35800 ft 434 kts 234°
2026-05-06 13:39 50.14776 19.18976 35806 ft 432 kts 234°
2026-05-06 13:39 50.11168 19.11489 35810 ft 432 kts 234°
2026-05-06 13:40 50.07542 19.03991 35804 ft 434 kts 234°
2026-05-06 13:40 50.03901 18.96476 35804 ft 434 kts 234°
2026-05-06 13:41 50.00268 18.88961 35808 ft 434 kts 234°
2026-05-06 13:41 49.96628 18.81503 35811 ft 435 kts 234°
2026-05-06 13:42 49.92955 18.74027 35813 ft 435 kts 234°
2026-05-06 13:42 49.89286 18.66587 35818 ft 434 kts 234°
2026-05-06 13:43 49.85597 18.59119 35822 ft 436 kts 234°
2026-05-06 13:43 49.81914 18.51625 35820 ft 437 kts 234°
2026-05-06 13:44 49.78231 18.44207 35816 ft 437 kts 234°
2026-05-06 13:44 49.74528 18.36765 35815 ft 437 kts 235°
2026-05-06 13:45 49.70799 18.29285 35822 ft 439 kts 230°
2026-05-06 13:45 49.65212 18.18118 35816 ft 437 kts 229°
2026-05-06 13:46 49.61533 18.10717 35622 ft 435 kts 230°
2026-05-06 13:46 49.59698 18.07020 34979 ft 433 kts 230°
2026-05-06 13:46 49.57861 18.03334 34229 ft 434 kts 229°
2026-05-06 13:47 49.56014 17.99639 33470 ft 435 kts 230°
2026-05-06 13:47 49.54168 17.95958 32703 ft 436 kts 230°
2026-05-06 13:47 49.52309 17.92257 31920 ft 437 kts 231°
2026-05-06 13:47 49.50459 17.88535 31120 ft 437 kts 231°
2026-05-06 13:48 49.48605 17.84833 30447 ft 435 kts 231°
2026-05-06 13:48 49.46762 17.81176 29860 ft 430 kts 230°
2026-05-06 13:48 49.44927 17.77552 29282 ft 427 kts 229°
2026-05-06 13:48 49.43133 17.74019 28724 ft 423 kts 229°
2026-05-06 13:49 49.41908 17.71612 28346 ft 421 kts 229°
2026-05-06 13:49 49.39528 17.66943 27609 ft 416 kts 229°
2026-05-06 13:49 49.37749 17.63459 27058 ft 413 kts 229°
2026-05-06 13:49 49.35979 17.59996 26509 ft 410 kts 229°
2026-05-06 13:50 49.34222 17.56561 25963 ft 408 kts 228°
2026-05-06 13:50 49.33059 17.54288 25599 ft 406 kts 228°
2026-05-06 13:50 49.31289 17.50923 25052 ft 403 kts 226°
2026-05-06 13:50 49.29439 17.47691 24510 ft 401 kts 225°
2026-05-06 13:51 49.27564 17.44539 23972 ft 399 kts 224°
2026-05-06 13:51 49.25721 17.41448 23442 ft 397 kts 224°
2026-05-06 13:51 49.23871 17.38336 22908 ft 395 kts 224°
2026-05-06 13:51 49.22019 17.35218 22374 ft 394 kts 224°
2026-05-06 13:52 49.20184 17.32124 21840 ft 392 kts 224°
2026-05-06 13:52 49.18337 17.29008 21304 ft 390 kts 224°
2026-05-06 13:52 49.16537 17.25972 20782 ft 388 kts 224°
2026-05-06 13:52 49.14725 17.22916 20252 ft 386 kts 224°
2026-05-06 13:53 49.12926 17.19883 19726 ft 385 kts 224°
2026-05-06 13:53 49.11131 17.16858 19198 ft 383 kts 224°
2026-05-06 13:53 49.09343 17.13845 18675 ft 382 kts 224°
2026-05-06 13:53 49.07577 17.10832 18153 ft 380 kts 225°
2026-05-06 13:54 49.05810 17.07828 17627 ft 379 kts 224°
2026-05-06 13:54 49.04058 17.04856 17236 ft 374 kts 224°
2026-05-06 13:54 49.02327 17.01929 16793 ft 370 kts 224°
2026-05-06 13:54 49.00625 16.99058 16309 ft 368 kts 224°
2026-05-06 13:55 48.98917 16.96151 15816 ft 367 kts 224°
2026-05-06 13:55 48.97194 16.93231 15318 ft 366 kts 224°
2026-05-06 13:55 48.95507 16.90389 14832 ft 364 kts 224°
2026-05-06 13:55 48.93806 16.87537 14340 ft 363 kts 224°
2026-05-06 13:56 48.92108 16.84696 13846 ft 362 kts 224°
2026-05-06 13:56 48.90410 16.81867 13357 ft 361 kts 224°
2026-05-06 13:56 48.88723 16.79058 12869 ft 360 kts 224°
2026-05-06 13:56 48.87038 16.76257 12395 ft 360 kts 224°
2026-05-06 13:57 48.85349 16.73454 11925 ft 358 kts 224°
2026-05-06 13:57 48.83690 16.70702 11469 ft 355 kts 224°
2026-05-06 13:57 48.82035 16.67959 11239 ft 347 kts 224°
2026-05-06 13:57 48.80314 16.65496 11059 ft 333 kts 212°
2026-05-06 13:58 48.78262 16.64090 10913 ft 317 kts 191°
2026-05-06 13:58 48.76118 16.63824 10856 ft 302 kts 176°
2026-05-06 13:58 48.74078 16.63952 10796 ft 292 kts 172°
2026-05-06 13:58 48.72076 16.64345 10743 ft 282 kts 169°
2026-05-06 13:59 48.70179 16.64875 10688 ft 273 kts 167°
2026-05-06 13:59 48.68369 16.65453 10633 ft 265 kts 167°
2026-05-06 13:59 48.66580 16.66032 10492 ft 261 kts 167°
2026-05-06 13:59 48.64809 16.66608 10266 ft 260 kts 167°
2026-05-06 14:00 48.63045 16.67184 10038 ft 258 kts 167°
2026-05-06 14:00 48.61297 16.67754 9699 ft 256 kts 167°
2026-05-06 14:00 48.59550 16.68319 9318 ft 256 kts 169°
2026-05-06 14:00 48.57780 16.68277 8936 ft 258 kts 191°
2026-05-06 14:01 48.56116 16.67263 8598 ft 259 kts 204°
2026-05-06 14:01 48.54570 16.65855 8246 ft 259 kts 209°
2026-05-06 14:01 48.53081 16.64308 7900 ft 259 kts 211°
2026-05-06 14:01 48.51608 16.62712 7446 ft 263 kts 211°
2026-05-06 14:02 48.50150 16.61136 7206 ft 257 kts 211°
2026-05-06 14:02 48.48702 16.59575 6892 ft 255 kts 211°
2026-05-06 14:02 48.47258 16.58022 6537 ft 255 kts 211°
2026-05-06 14:02 48.45818 16.56476 6214 ft 254 kts 211°
2026-05-06 14:03 48.44399 16.54955 6004 ft 247 kts 211°
2026-05-06 14:03 48.43026 16.53485 5830 ft 235 kts 211°
2026-05-06 14:03 48.41725 16.52093 5693 ft 224 kts 211°
2026-05-06 14:03 48.40484 16.50766 5575 ft 213 kts 211°
2026-05-06 14:04 48.39311 16.49513 5486 ft 201 kts 211°
2026-05-06 14:04 48.38205 16.48333 5367 ft 188 kts 210°
2026-05-06 14:04 48.37052 16.47794 5223 ft 167 kts 179°
2026-05-06 14:04 48.35936 16.47974 5175 ft 153 kts 171°
2026-05-06 14:05 48.34949 16.48244 5117 ft 137 kts 168°
2026-05-06 14:05 48.34056 16.48549 5000 ft 128 kts 166°
2026-05-06 14:05 48.33219 16.48861 4846 ft 124 kts 165°
2026-05-06 14:05 48.32399 16.49181 4693 ft 120 kts 166°
2026-05-06 14:06 48.31597 16.49504 4536 ft 118 kts 166°
2026-05-06 14:06 48.30805 16.49829 4384 ft 118 kts 166°
2026-05-06 14:06 48.30013 16.50159 4228 ft 118 kts 166°
2026-05-06 14:06 48.29223 16.50491 4072 ft 118 kts 165°
2026-05-06 14:07 48.28435 16.50824 3916 ft 118 kts 165°
2026-05-06 14:07 48.27648 16.51157 3760 ft 117 kts 165°
2026-05-06 14:07 48.26865 16.51490 3604 ft 117 kts 165°
2026-05-06 14:07 48.26079 16.51824 3448 ft 117 kts 165°
2026-05-06 14:08 48.25295 16.52158 3292 ft 117 kts 165°
2026-05-06 14:08 48.24522 16.52487 3139 ft 117 kts 165°
2026-05-06 14:08 48.23739 16.52820 2984 ft 116 kts 165°
2026-05-06 14:08 48.22960 16.53152 2828 ft 116 kts 165°
2026-05-06 14:09 48.22182 16.53484 2674 ft 116 kts 165°
2026-05-06 14:09 48.21402 16.53815 2519 ft 116 kts 165°
2026-05-06 14:09 48.20630 16.54144 2366 ft 115 kts 165°
2026-05-06 14:09 48.19868 16.54468 2214 ft 115 kts 165°
2026-05-06 14:10 48.19103 16.54793 2070 ft 114 kts 165°
2026-05-06 14:10 48.18330 16.55121 1978 ft 117 kts 165°
2026-05-06 14:10 48.17531 16.55457 1868 ft 121 kts 166°
2026-05-06 14:10 48.16712 16.55798 1742 ft 122 kts 166°
2026-05-06 14:11 48.15887 16.56140 1549 ft 123 kts 166°
2026-05-06 14:11 48.15065 16.56494 1320 ft 123 kts 165°
2026-05-06 14:11 48.14267 16.56863 1133 ft 120 kts 164°
2026-05-06 14:11 48.13467 16.57212 946 ft 120 kts 165°
2026-05-06 14:12 48.12666 16.57535 787 ft 120 kts 166°
2026-05-06 14:12 48.11868 16.57867 640 ft 116 kts 165°
2026-05-06 14:12 48.11186 16.58155 608 ft 76 kts 164°
2026-05-06 14:12 48.10874 16.58284 608 ft 20 kts 165°
2026-05-06 14:13 48.10765 16.58296 608 ft 13 kts 182°
2026-05-06 14:13 48.10686 16.58276 608 ft 10 kts 192°
2026-05-06 14:13 48.10629 16.58257 608 ft 7 kts 192°
2026-05-06 14:13 48.10593 16.58246 608 ft 4 kts 193°
2026-05-06 14:14 48.10576 16.58239 608 ft 2 kts 196°
2026-05-06 14:14 48.10567 16.58235 608 ft 1 kts 198°
2026-05-06 14:14 48.10562 16.58232 608 ft 0 kts 198°
2026-05-06 14:14 48.10561 16.58232 608 ft 0 kts 198°
2026-05-06 14:15 48.10557 16.58230 608 ft 1 kts 198°
2026-05-06 14:15 48.10550 16.58226 608 ft 1 kts 199°
2026-05-06 14:15 48.10541 16.58222 608 ft 2 kts 199°
2026-05-06 14:15 48.10530 16.58216 608 ft 2 kts 199°
2026-05-06 14:16 48.10516 16.58209 608 ft 2 kts 202°
2026-05-06 14:16 48.10501 16.58196 608 ft 3 kts 212°
2026-05-06 14:16 48.10481 16.58171 608 ft 5 kts 228°
2026-05-06 14:16 48.10463 16.58117 608 ft 7 kts 258°
2026-05-06 14:17 48.10483 16.58037 608 ft 10 kts 326°
2026-05-06 14:17 48.10557 16.58001 608 ft 12 kts 343°
2026-05-06 14:17 48.10649 16.57961 608 ft 15 kts 343°
2026-05-06 14:17 48.10762 16.57914 608 ft 18 kts 344°
2026-05-06 14:18 48.10886 16.57861 608 ft 19 kts 344°
2026-05-06 14:18 48.11011 16.57808 608 ft 19 kts 344°
2026-05-06 14:18 48.11135 16.57755 608 ft 18 kts 344°
2026-05-06 14:18 48.11259 16.57703 608 ft 18 kts 344°
2026-05-06 14:19 48.11377 16.57653 608 ft 16 kts 345°
2026-05-06 14:19 48.11479 16.57611 608 ft 15 kts 344°
2026-05-06 14:19 48.11576 16.57571 608 ft 14 kts 344°
2026-05-06 14:19 48.11671 16.57527 608 ft 14 kts 342°
2026-05-06 14:20 48.11744 16.57495 608 ft 8 kts 344°
2026-05-06 14:20 48.11789 16.57459 608 ft 7 kts 314°
2026-05-06 14:20 48.11804 16.57388 608 ft 7 kts 264°
2026-05-06 14:20 48.11807 16.57306 608 ft 8 kts 284°
2026-05-06 14:21 48.11830 16.57223 608 ft 8 kts 297°
2026-05-06 14:21 48.11851 16.57161 608 ft 7 kts 296°
2026-05-06 14:21 48.11872 16.57104 608 ft 5 kts 316°
2026-05-06 14:21 48.11902 16.57100 608 ft 5 kts 26°
2026-05-06 14:22 48.11930 16.57122 608 ft 4 kts 25°
2026-05-06 14:22 48.11959 16.57142 608 ft 4 kts 25°
2026-05-06 14:22 48.11964 16.57146 608 ft 0 kts 24°